Martha's Vineyard, MA

11:08 AM EDT on April 24, 2017 (GMT -0400)
Martha's Vineyard

Weather History for KMVY - February, 2014

Change the Weather History Date:

Sunday, February 16, 2014

  Actual Average Record
Temperature  
Mean Temperature 28 °F -  
Max Temperature 32 °F 40 °F 57 °F (1984)
Min Temperature 25 °F 23 °F 0 °F (2015)
Degree Days  
Heating Degree Days 36    
Moisture  
Dew Point 21 °F    
Average Humidity 71    
Maximum Humidity 96    
Minimum Humidity 51    
Precipitation  
Precipitation 0.00 in - - ()
Sea Level Pressure  
Sea Level Pressure 29.68 in    
Wind  
Wind Speed 20 mph (WNW)    
Max Wind Speed 29 mph    
Max Gust Speed 41 mph    
Visibility 8 miles    
Events Snow    
Averages and records for this station are not official NWS values.
T = Trace of Precipitation, MM = Missing Value Source: NWS Daily Summary

Daily Weather History Graph

Daily Weather History Graph

Search for Another Location

Airport or City:

Trip Planner

Search our weather history database for the weather conditions in past years. The results will help you decide how hot, cold, wet, or windy it might be!

Date:

Astronomy

Feb. 16, 2014 Rise Set
Actual Time 6:36 AM EST 5:17 PM EST
Civil Twilight 6:07 AM EST 5:45 PM EST
Nautical Twilight 5:35 AM EST 6:18 PM EST
Astronomical Twilight 5:03 AM EST 6:50 PM EST
Moon 7:13 PM EST (2/16) 7:02 AM EST (2/16)
Length of Visible Light 11h 38m
Length of Day
10h 41m
Full, 97% of the Moon is Illuminated
Feb 16
Full
Feb 22
Last Quarter
Mar 1
New
Mar 8
First Quarter
Mar 16
Full

Hourly Weather History & Observations

Time (EST) Temp. Windchill Dew Point Humidity Pressure Visibility Wind Dir Wind Speed Gust Speed Precip Events Conditions
12:21 AM 30.9 °F 16.7 °F 30.0 °F 96% 29.35 in 1.0 mi NNW 27.6 mph 41.4 mph 0.00 in Snow Light Snow
12:34 AM 30.9 °F 17.2 °F 30.0 °F 96% 29.36 in 1.8 mi NNW 25.3 mph 39.1 mph 0.00 in Snow Light Snow
12:53 AM 30.9 °F 16.4 °F 30.0 °F 96% 29.37 in 2.0 mi NNW 28.8 mph 38.0 mph 0.00 in Snow Light Snow
1:20 AM 32.0 °F 18.9 °F 30.0 °F 92% 29.40 in 3.0 mi NW 24.2 mph 39.1 mph 0.00 in Snow Light Snow
1:42 AM 32.0 °F 18.9 °F 30.0 °F 92% 29.41 in 4.0 mi NNW 24.2 mph 32.2 mph 0.00 in Snow Light Snow
1:53 AM 32.0 °F 19.5 °F 28.9 °F 88% 29.44 in 3.0 mi NW 21.9 mph 32.2 mph 0.00 in Snow Light Snow
2:07 AM 32.0 °F 18.9 °F 28.9 °F 88% 29.45 in 2.0 mi NW 24.2 mph 35.7 mph 0.00 in Snow Light Snow
2:23 AM 32.0 °F 19.5 °F 28.9 °F 88% 29.46 in 5.0 mi NW 21.9 mph 32.2 mph 0.00 in Snow Light Snow
2:53 AM 32.0 °F 21.2 °F 28.0 °F 85% 29.49 in 10.0 mi NW 16.1 mph 29.9 mph 0.00 in   Overcast
3:39 AM 30.9 °F 19.4 °F 25.0 °F 79% 29.54 in 10.0 mi NW 17.3 mph 27.6 mph 0.00 in   Overcast
3:53 AM 30.0 °F 17.2 °F 24.1 °F 79% 29.56 in 10.0 mi NW 20.7 mph 36.8 mph 0.00 in   Mostly Cloudy
4:53 AM 27.0 °F 14.3 °F 19.9 °F 75% 29.61 in 10.0 mi WNW 17.3 mph 26.5 mph N/A   Clear
5:53 AM 26.1 °F 11.0 °F 16.0 °F 66% 29.66 in 10.0 mi WNW 24.2 mph 34.5 mph N/A   Clear
6:53 AM 25.0 °F 10.9 °F 16.0 °F 69% 29.70 in 10.0 mi WNW 19.6 mph 33.4 mph N/A   Clear
7:53 AM 26.1 °F 14.0 °F 15.1 °F 63% 29.73 in 10.0 mi WNW 15.0 mph 26.5 mph N/A   Clear
8:53 AM 27.0 °F 16.7 °F 17.1 °F 66% 29.76 in 10.0 mi WNW 11.5 mph 26.5 mph N/A   Clear
9:53 AM 28.0 °F 17.0 °F 17.1 °F 63% 29.78 in 10.0 mi WNW 13.8 mph 20.7 mph N/A   Clear
10:53 AM 28.9 °F 17.3 °F 17.1 °F 61% 29.79 in 10.0 mi West 16.1 mph 24.2 mph N/A   Clear
11:53 AM 28.9 °F 19.2 °F 17.1 °F 61% 29.80 in 10.0 mi West 11.5 mph 18.4 mph N/A   Clear
12:53 PM 30.0 °F 18.7 °F 15.1 °F 54% 29.80 in 10.0 mi West 16.1 mph 21.9 mph N/A   Clear
1:53 PM 30.9 °F 20.7 °F 17.1 °F 57% 29.80 in 10.0 mi West 13.8 mph 19.6 mph N/A   Clear
2:53 PM 32.0 °F 22.1 °F 16.0 °F 52% 29.82 in 10.0 mi West 13.8 mph 23.0 mph N/A   Clear
3:53 PM 32.0 °F 23.6 °F 16.0 °F 52% 29.83 in 10.0 mi West 10.4 mph 18.4 mph N/A   Clear
4:53 PM 30.0 °F 21.7 °F 14.0 °F 51% 29.84 in 10.0 mi West 9.2 mph - N/A   Partly Cloudy
5:53 PM 28.9 °F 23.9 °F 15.1 °F 56% 29.87 in 10.0 mi WNW 4.6 mph - N/A   Scattered Clouds
6:53 PM 28.9 °F 23.9 °F 17.1 °F 61% 29.88 in 10.0 mi West 4.6 mph - N/A   Overcast
7:53 PM 28.9 °F 21.9 °F 16.0 °F 58% 29.89 in 10.0 mi WNW 6.9 mph - N/A   Overcast
8:53 PM 28.9 °F 19.8 °F 14.0 °F 54% 29.91 in 10.0 mi WNW 10.4 mph - N/A   Overcast
9:53 PM 27.0 °F 19.5 °F 15.1 °F 61% 29.94 in 10.0 mi WNW 6.9 mph - 0.00 in   Overcast
10:53 PM 26.1 °F 15.6 °F 16.0 °F 66% 29.94 in 9.0 mi WNW 11.5 mph - 0.00 in   Overcast
11:53 PM 26.1 °F 15.6 °F 15.1 °F 63% 29.95 in 10.0 mi NW 11.5 mph - N/A   Overcast